Theta_e
314 315 320 321 322 322 323 321 315 319 319 317 320 318 315 320 323 320 325 322 318 325 333 342 344 346 346 346 349 350 351 358 358 350 347 346 344 347 346 345 349 349 348 346 345 346 345 343 337 334 334 330 328 327 324 323 328 333 335 336 335 335 336 337 337 337 338 335 332 329 330 332 334 336 336 336 336 335 335 335 336 336 337 339 339 339 340 339 339 339 339 339 339 339 339 338 338
314 317 323 323 322 321 325 322 320 323 318 314 316 320 318 320 323 322 330 323 321 336 345 350 354 356 351 350 350 351 355 350 348 348 347 346 346 347 344 346 348 348 348 346 346 346 345 343 338 335 334 331 329 328 328 325 327 332 335 337 336 336 337 339 339 338 337 335 334 334 333 333 334 335 335 335 335 335 335 335 335 335 337 338 339 338 339 339 339 339 339 339 338 337 337 336 336
313 317 321 324 321 322 329 323 321 323 316 312 314 322 321 320 325 324 328 319 324 345 349 352 357 355 352 357 353 351 356 349 346 348 347 347 348 347 345 346 347 348 347 346 346 345 345 342 339 336 334 331 328 329 331 329 327 331 335 336 337 338 338 339 339 338 338 337 337 337 337 336 336 336 336 335 333 333 334 335 335 335 337 338 338 338 338 338 338 338 338 337 335 334 333 333 333
312 315 320 324 322 325 335 330 329 326 317 316 316 321 325 325 327 321 320 316 323 337 346 356 357 351 355 363 354 351 354 350 348 347 348 347 347 348 346 346 347 348 347 347 346 345 344 342 339 337 335 332 329 330 331 330 329 331 333 336 338 338 338 339 339 338 339 339 338 338 338 338 338 337 337 336 336 335 335 335 336 337 338 338 338 338 338 338 338 337 336 335 332 329 330 331 331
312 316 320 323 323 325 332 328 329 325 316 320 318 321 329 326 324 319 316 316 318 322 339 360 358 350 354 356 352 354 353 351 348 345 347 347 347 347 345 345 346 347 347 347 346 345 345 343 340 337 336 332 329 331 330 329 330 331 332 334 337 338 338 339 338 339 339 339 338 337 337 338 338 338 338 338 339 339 338 338 337 338 338 338 338 338 337 337 337 336 336 333 330 329 330 332 332
313 318 320 320 320 320 324 323 325 325 318 320 321 326 329 323 320 318 317 317 321 328 344 358 356 355 355 351 351 352 348 350 349 345 346 347 347 347 345 344 345 347 347 347 346 345 345 344 340 337 336 333 331 331 329 330 329 329 331 332 335 339 339 337 337 338 339 339 338 338 338 338 338 338 338 338 339 339 338 337 336 337 337 336 336 336 336 336 336 334 333 330 328 329 331 332 331
315 319 321 321 320 320 328 329 329 330 323 319 323 327 324 320 318 318 320 315 324 342 354 356 352 359 357 350 353 349 344 348 347 346 347 347 347 346 345 344 346 347 346 347 346 344 345 343 340 338 336 335 333 331 330 330 329 329 331 333 335 338 339 338 337 337 339 339 338 338 337 338 338 337 337 338 339 338 336 332 329 331 333 334 335 336 336 335 333 332 331 329 328 330 332 332 331
318 319 321 325 325 322 328 329 327 328 324 320 320 323 323 322 320 321 322 314 319 341 354 354 352 362 357 350 355 348 344 347 345 347 347 347 348 347 346 345 347 347 347 347 345 345 345 342 340 339 336 337 335 332 331 332 331 330 332 333 335 338 338 339 338 339 339 339 338 338 337 337 338 338 338 338 338 336 333 329 326 326 327 330 333 334 334 332 331 331 329 328 328 331 332 332 331
317 317 318 323 324 323 326 324 321 322 323 321 319 321 323 320 321 322 320 321 333 348 356 356 356 363 356 350 353 346 344 346 345 347 347 347 347 346 346 346 347 346 347 346 345 345 344 343 341 339 338 338 337 333 332 334 334 332 332 333 335 337 337 337 336 338 339 338 339 338 337 337 338 338 337 337 336 336 333 329 326 324 322 324 329 331 331 330 330 329 328 327 329 331 332 332 331
319 317 318 324 322 321 324 322 321 321 322 320 317 318 319 316 317 317 317 329 346 357 356 353 355 359 355 353 352 347 345 345 345 346 346 346 346 346 346 346 347 346 346 346 345 345 344 344 341 340 339 339 339 334 331 336 336 333 334 333 334 336 338 337 334 336 338 339 339 338 337 338 338 336 336 336 336 336 334 330 327 323 320 322 325 329 329 329 329 328 327 328 330 331 332 332 331
324 320 321 327 324 322 322 324 327 326 323 319 317 317 317 315 314 322 331 339 352 358 355 354 356 353 352 352 350 346 344 344 345 345 344 345 345 345 345 346 346 345 346 346 346 344 344 344 342 341 340 339 339 335 331 334 335 334 336 334 333 336 337 336 334 336 337 339 339 338 338 338 337 335 336 337 335 334 333 331 328 323 319 321 324 327 328 328 328 326 327 329 331 332 333 332 331
323 323 327 331 328 325 324 327 327 327 325 319 322 319 316 316 317 339 353 349 355 358 354 357 358 352 353 353 349 345 343 343 343 344 344 344 344 344 344 345 346 345 345 345 345 345 344 343 343 343 342 340 339 336 332 333 334 336 337 334 334 336 335 335 334 335 337 338 338 339 338 336 335 335 337 336 335 334 333 332 329 323 319 319 323 325 326 327 326 326 327 330 331 333 333 332 331
325 324 328 325 324 326 323 324 323 326 327 323 323 316 316 316 318 343 356 353 356 354 348 352 353 352 354 353 350 346 343 342 342 344 344 342 342 342 343 344 345 345 345 345 345 344 344 343 343 344 343 341 340 338 335 334 335 337 337 335 335 335 334 335 334 335 336 337 338 339 337 334 335 337 337 336 336 335 334 333 330 325 319 317 321 324 325 325 325 326 329 330 332 333 333 332 331
323 323 326 320 319 323 319 320 322 321 324 323 319 316 318 316 324 344 355 360 358 351 348 348 349 355 356 352 351 348 344 343 343 345 343 342 340 339 341 343 344 345 345 345 344 343 343 343 343 344 343 342 341 339 338 336 335 337 337 336 335 334 334 334 335 335 335 336 337 336 334 335 338 338 337 337 337 335 334 333 330 328 323 317 318 323 324 324 325 327 329 331 333 333 333 332 331
320 323 328 323 319 320 318 319 319 316 319 319 315 315 318 317 331 348 351 360 358 347 348 347 345 352 357 356 354 348 344 343 344 344 343 342 340 340 340 342 344 344 345 344 343 343 343 343 343 343 342 342 341 340 339 337 335 337 338 337 334 333 333 333 334 335 334 335 335 334 334 336 338 338 337 338 337 335 334 332 330 329 326 320 316 320 323 323 326 328 330 331 333 332 332 332 330
319 323 325 322 319 317 318 317 315 315 318 319 314 313 319 321 331 344 342 349 355 347 349 351 347 348 351 353 351 344 343 344 344 344 343 343 342 341 341 342 344 343 344 344 343 343 343 343 343 344 343 341 341 339 339 338 336 337 339 337 334 334 333 333 334 335 334 333 333 334 335 337 338 338 337 337 338 336 334 332 330 329 328 322 317 319 322 324 327 329 330 332 333 332 332 331 330
315 322 324 320 319 317 317 317 314 314 316 319 316 313 320 326 330 338 341 347 354 352 351 351 346 346 348 348 345 343 344 344 344 344 343 343 342 342 342 342 343 343 344 343 343 343 342 343 344 344 342 341 340 339 339 338 337 338 338 337 335 334 333 333 334 334 333 333 333 334 336 339 339 339 338 338 338 336 334 332 330 330 329 325 319 319 322 325 328 329 330 332 333 333 332 331 331
314 321 323 319 320 318 318 320 316 313 314 316 314 314 317 327 334 335 343 348 352 356 352 348 345 343 344 343 343 343 344 344 343 344 343 342 342 342 342 342 343 343 343 342 343 343 343 344 344 344 343 341 340 339 340 338 339 339 337 336 335 334 333 334 334 334 333 333 333 334 336 338 339 339 338 338 338 336 335 332 331 330 330 327 323 321 323 327 329 328 330 332 332 332 332 331 331
319 321 320 322 322 318 317 319 317 313 314 314 314 316 314 321 330 332 346 349 355 368 355 347 348 345 343 342 343 344 343 344 343 343 343 342 341 341 341 341 341 342 342 341 342 342 343 344 344 344 342 341 340 339 340 339 340 340 337 336 334 333 333 334 335 336 334 334 334 334 335 336 338 338 337 338 338 336 334 332 331 330 330 330 326 322 324 328 328 328 330 332 332 332 332 332 331
320 319 318 324 320 316 316 315 315 314 313 314 314 316 314 315 317 324 347 350 356 373 361 352 352 347 346 344 342 343 343 343 342 342 342 341 340 339 340 340 340 341 341 341 342 342 343 344 344 343 342 341 340 339 340 340 340 339 337 336 334 333 334 334 336 337 335 335 335 334 334 335 337 337 337 338 337 336 335 332 331 331 330 330 328 324 324 328 327 327 329 332 333 334 333 333 331
317 317 320 322 315 315 317 313 315 315 312 314 314 315 314 313 320 334 349 349 350 360 358 356 352 346 346 344 342 343 342 342 342 341 340 340 339 338 339 339 339 340 340 341 341 343 343 343 343 342 341 341 340 340 340 340 340 339 337 336 334 333 334 335 337 338 336 336 335 335 334 335 337 336 337 338 337 335 335 333 331 331 330 330 330 326 323 326 326 326 329 331 333 334 334 334 333
315 316 318 318 313 315 316 314 315 314 312 313 314 315 313 313 329 348 355 352 349 352 353 351 347 344 343 343 342 342 341 342 341 340 339 338 337 338 338 338 339 339 339 340 341 343 343 342 342 341 341 341 340 340 340 340 339 338 337 337 334 334 335 336 337 338 338 336 335 334 334 336 337 337 337 337 336 334 334 334 332 331 330 330 330 328 324 324 326 326 329 331 333 334 333 333 333
315 317 316 316 314 315 315 314 314 312 312 312 313 312 314 314 320 334 343 338 328 335 346 346 344 341 341 342 342 342 342 342 340 339 338 337 337 338 338 338 338 339 338 339 340 342 341 341 341 341 341 340 340 340 340 339 339 338 338 338 335 334 336 337 338 338 338 337 335 335 335 337 337 337 337 337 336 334 334 334 333 332 330 330 331 330 325 323 325 327 329 331 333 334 333 333 332
314 317 316 315 314 314 314 314 313 313 312 312 312 311 314 315 312 317 322 325 330 337 344 344 343 341 341 342 341 342 342 341 339 338 338 338 337 337 337 337 337 338 338 339 340 341 340 340 340 340 340 339 340 340 339 339 339 338 338 339 337 335 337 338 338 338 338 337 336 336 336 337 337 336 336 336 336 335 334 334 333 332 330 330 331 331 328 324 326 328 330 331 333 334 333 332 332
313 315 316 314 314 315 313 313 312 313 313 311 311 312 315 313 312 312 314 333 344 345 344 343 342 341 341 341 341 342 341 340 338 338 338 337 337 336 337 336 337 339 338 338 339 341 340 339 339 339 339 339 339 339 339 339 339 338 338 339 338 337 338 338 338 339 338 338 337 337 336 336 336 335 335 335 336 335 335 335 333 331 329 330 331 331 330 328 327 328 330 332 333 334 333 332 331
314 314 315 313 313 314 312 313 313 313 313 312 312 314 315 311 312 312 315 338 349 343 343 344 342 342 341 341 341 340 340 339 337 337 338 337 336 335 336 336 337 338 338 338 338 339 340 339 339 339 339 338 338 339 339 338 338 338 338 338 339 338 338 338 339 339 339 339 337 337 336 335 335 334 333 333 335 335 335 335 333 331 329 329 331 331 330 330 329 329 329 331 333 333 333 333 331
315 313 313 313 313 312 311 312 312 311 311 313 313 314 315 310 314 312 313 334 348 344 345 344 343 343 341 340 339 338 338 337 337 337 337 336 335 335 336 336 336 337 337 338 338 339 339 338 338 339 339 336 336 338 338 339 338 339 338 338 338 337 337 338 338 338 339 339 338 337 336 335 336 335 334 332 333 334 334 334 333 331 329 328 330 332 331 330 330 330 329 331 333 333 334 333 332
313 312 312 313 313 311 311 312 312 312 311 314 313 313 315 310 315 314 316 336 347 345 347 344 344 343 340 340 339 338 337 336 337 336 336 336 335 335 336 336 335 336 336 336 338 338 339 337 337 339 338 334 333 337 338 338 338 339 339 339 338 337 337 338 337 337 338 338 338 337 337 336 336 336 335 333 332 333 333 332 331 330 329 327 329 331 331 330 330 330 330 331 333 333 333 333 332
311 312 312 315 316 312 312 313 312 312 312 314 313 312 315 314 314 310 320 343 347 344 348 345 345 343 340 340 339 338 337 336 336 335 337 336 336 335 336 336 334 334 334 335 336 337 338 336 335 337 337 333 334 337 337 337 338 339 339 339 337 336 336 337 337 336 336 336 336 336 337 336 336 336 336 335 333 333 332 332 331 330 329 327 328 331 331 330 330 331 331 331 333 333 333 333 332
312 311 312 315 316 314 312 312 311 312 313 314 312 313 318 318 316 309 321 345 349 345 349 346 346 345 341 341 339 339 336 335 336 335 336 336 337 336 336 337 334 333 334 335 336 335 337 334 331 333 334 334 336 338 338 337 338 338 339 338 336 335 335 336 336 336 335 335 335 335 336 337 337 336 336 336 335 333 333 332 331 330 329 328 328 331 331 330 330 331 331 331 332 332 332 333 333
314 310 314 315 311 315 316 314 313 312 312 314 312 313 318 315 314 309 321 344 352 348 350 346 347 345 341 341 340 339 337 336 336 335 336 335 336 337 336 337 335 333 333 334 335 335 337 335 330 330 333 334 335 338 337 336 337 337 337 337 336 335 334 335 335 335 335 334 334 335 336 336 337 336 335 336 336 335 334 332 330 330 330 329 329 330 330 330 330 330 331 331 331 331 332 332 333
317 310 317 318 311 316 319 314 315 313 311 314 312 314 318 314 313 308 317 342 352 348 351 346 347 347 342 341 339 340 338 335 336 335 335 335 335 336 337 337 336 335 334 333 334 334 335 334 331 331 334 334 335 337 336 335 337 336 336 336 336 336 335 335 335 335 335 334 334 335 336 336 336 336 334 335 337 336 335 333 331 330 331 331 331 331 330 330 330 330 330 330 331 331 332 332 332
323 315 317 317 311 314 315 312 313 314 311 312 312 315 317 312 311 308 315 338 350 347 351 347 348 347 344 342 339 340 339 337 336 335 335 335 335 336 336 337 336 337 337 335 334 334 333 333 334 335 335 335 336 337 336 336 338 337 336 335 335 335 335 335 335 336 336 335 335 335 336 336 336 336 335 336 336 336 336 334 331 331 332 332 332 332 331 331 331 330 330 330 330 331 331 332 331
321 320 317 315 312 311 311 313 313 312 313 314 313 314 317 312 310 310 313 329 343 344 347 347 348 348 345 343 340 339 340 339 338 335 335 335 335 336 336 337 336 336 337 336 335 335 334 334 336 337 336 336 336 337 337 337 338 338 337 335 335 335 335 336 337 337 337 336 336 336 336 336 335 336 336 336 335 335 336 334 331 332 333 332 332 332 331 332 332 331 330 330 330 331 331 332 331
318 320 317 313 313 312 311 314 314 312 313 313 313 314 316 312 309 311 313 323 337 341 343 344 346 348 346 344 342 340 340 339 337 336 336 335 335 336 335 336 335 336 336 336 336 336 336 336 336 337 336 336 336 336 337 337 337 338 337 336 335 335 335 337 338 338 338 337 337 336 336 336 335 335 336 336 335 335 335 334 332 332 333 332 333 332 332 332 332 331 331 331 331 331 331 332 331
320 320 318 314 312 312 313 314 314 313 312 314 314 314 314 313 314 317 319 324 330 335 341 343 343 346 347 346 344 341 340 339 337 336 336 335 335 335 335 335 334 335 335 336 336 336 336 336 336 336 335 334 335 336 336 336 337 337 337 336 336 335 336 337 337 337 337 337 337 336 335 335 334 335 335 335 335 335 335 334 332 332 333 333 333 333 332 333 333 332 332 332 331 331 331 331 330
317 316 316 314 311 314 314 313 315 312 312 317 315 312 315 318 321 323 325 329 329 330 336 339 340 342 345 346 344 343 341 339 337 337 336 335 335 335 335 334 333 334 334 335 335 335 335 335 334 334 333 333 334 335 335 335 336 336 336 336 336 336 335 335 336 336 337 337 337 335 334 334 334 334 334 335 335 334 334 334 333 332 332 333 334 333 333 333 332 332 332 332 331 330 329 329 329
314 314 314 313 312 315 314 312 314 311 314 319 314 316 321 322 325 326 328 333 332 330 332 334 337 339 342 344 343 342 340 338 336 336 335 334 334 335 334 334 333 333 333 334 334 334 335 335 334 333 333 333 333 334 334 334 335 335 335 335 335 335 335 334 334 335 335 335 336 335 333 334 334 334 334 334 334 333 333 333 333 332 331 333 333 332 333 332 331 332 332 331 330 329 328 328 329
317 315 313 314 314 314 315 315 315 312 314 319 316 318 322 319 322 326 329 333 332 331 332 331 334 336 338 340 342 341 339 338 337 336 335 334 334 334 334 333 333 333 333 333 334 334 334 334 334 333 333 332 332 333 333 334 335 335 335 335 334 334 334 334 334 334 335 334 335 334 332 332 333 333 334 334 333 332 332 331 331 332 331 332 332 331 332 331 331 332 332 331 330 328 328 328 329
320 318 315 316 315 314 316 318 318 314 313 316 316 319 322 320 324 327 328 331 332 332 332 331 331 333 333 334 338 340 339 338 338 336 335 333 334 334 333 333 333 333 333 333 334 334 334 335 335 335 333 333 332 333 333 334 335 335 335 335 334 334 334 334 334 335 335 335 335 334 333 333 333 333 333 333 332 331 331 330 330 331 331 330 331 331 330 330 331 331 331 332 330 328 328 328 329
317 320 320 319 317 317 316 316 321 322 317 316 316 321 324 324 328 328 328 332 332 331 331 331 330 330 331 332 334 337 337 337 337 336 334 333 334 334 333 333 333 334 334 334 334 335 335 335 336 336 335 334 334 333 334 334 335 335 335 335 334 334 334 334 334 335 335 335 335 334 334 334 334 333 333 333 332 331 330 330 329 330 329 328 330 331 329 329 331 331 331 331 330 329 328 328 328
314 317 321 321 320 319 316 315 324 327 318 312 315 322 321 322 330 330 329 332 332 332 331 330 330 329 330 332 333 334 335 335 335 334 334 333 333 333 333 333 334 335 335 334 335 335 335 335 335 336 336 336 336 335 335 335 335 336 335 335 334 334 334 334 334 335 335 335 335 335 334 333 333 333 332 332 332 332 330 329 329 329 328 327 330 331 329 329 330 331 331 331 330 330 329 328 328
314 315 317 318 318 316 314 315 318 321 317 312 316 320 316 319 329 330 330 333 332 332 331 330 331 329 330 330 330 331 332 333 334 334 333 333 334 333 333 333 333 334 333 334 335 335 335 335 335 336 336 337 337 337 336 335 336 336 335 335 334 333 333 333 334 334 334 334 334 334 333 333 333 333 332 332 332 332 331 329 327 328 327 326 329 331 330 330 330 331 331 330 329 329 328 328 328
316 316 315 314 316 316 318 317 316 318 318 318 322 323 319 322 327 329 331 333 332 332 332 330 330 328 329 329 328 328 328 329 331 332 333 333 333 333 332 333 333 332 332 332 333 334 335 335 335 335 336 336 337 337 336 334 334 335 335 335 332 330 331 332 333 333 333 332 333 334 333 332 332 332 332 331 331 331 330 329 328 329 329 328 329 330 331 331 331 331 331 330 329 329 328 329 329
317 317 314 315 317 318 318 317 321 323 315 317 325 323 319 320 323 329 332 332 332 332 332 331 330 328 327 327 326 326 325 326 327 328 330 331 330 330 331 331 331 330 329 329 330 331 332 332 332 333 333 334 335 336 336 334 333 334 334 332 330 329 330 330 330 331 331 330 331 333 333 332 331 331 332 331 330 331 330 329 331 331 331 331 331 332 332 331 331 332 331 330 330 329 328 329 329
314 313 314 316 318 320 321 319 323 323 313 317 325 323 322 321 324 332 333 332 334 333 332 330 328 326 325 324 323 323 322 322 322 323 324 326 326 326 327 327 327 326 326 328 329 328 328 328 329 330 331 333 334 333 332 333 333 331 331 330 329 329 329 329 329 329 329 328 329 331 333 333 331 330 331 330 330 331 331 331 332 332 332 331 332 332 332 332 331 332 332 331 330 330 330 330 329
311 314 315 316 320 325 331 331 326 318 317 324 323 322 326 323 326 334 333 331 332 331 331 329 326 325 323 322 321 320 320 319 319 319 320 320 320 321 322 323 323 323 324 326 327 326 326 326 327 328 330 330 331 329 329 331 331 331 331 331 331 330 329 329 328 328 328 328 328 330 332 333 331 330 330 330 330 331 332 331 331 331 331 331 331 332 332 332 331 331 332 331 330 330 330 330 329
313 319 317 315 321 325 329 332 325 317 320 325 320 320 326 326 328 333 331 328 328 328 328 326 324 324 322 321 320 319 318 318 317 317 317 317 317 317 318 319 319 320 321 323 324 325 326 326 327 328 329 329 329 329 329 330 331 332 332 332 330 330 329 329 328 328 328 327 328 330 331 332 332 330 331 331 330 331 331 330 330 330 331 332 332 332 332 332 332 331 331 331 331 331 331 330 330
314 319 317 316 320 319 319 323 322 322 321 316 315 323 331 333 332 331 329 327 326 325 325 323 322 321 320 319 318 317 316 316 315 315 315 315 315 315 315 316 316 316 317 318 320 323 325 325 326 327 328 328 328 329 329 329 330 332 332 332 330 329 329 329 329 329 327 328 329 328 329 331 332 330 330 331 330 330 330 330 330 331 332 332 332 331 331 332 332 331 331 331 331 331 331 331 330
313 315 316 318 320 317 316 318 319 320 318 313 317 330 337 335 333 329 327 326 324 322 321 320 319 318 317 316 316 316 315 314 314 314 313 313 313 313 313 313 313 313 314 315 317 319 321 324 325 326 326 326 327 327 328 328 329 330 330 331 331 330 328 329 329 328 328 328 328 327 327 329 331 330 329 330 330 329 329 329 330 332 332 332 332 331 330 331 331 330 331 331 331 331 331 331 330
312 314 315 317 322 323 320 321 320 317 317 318 324 332 335 334 332 327 325 323 321 320 318 317 316 315 315 314 313 313 313 313 313 312 312 312 311 311 311 311 311 311 312 313 314 315 317 320 322 324 325 325 325 325 325 326 328 329 328 330 331 329 328 328 328 328 328 329 328 328 326 327 329 329 328 329 330 330 330 330 331 331 331 331 331 332 331 331 330 330 331 331 331 331 330 330 330
312 311 313 315 319 326 323 321 323 322 323 326 327 328 329 330 330 325 323 321 319 318 316 315 315 314 314 313 312 312 311 311 311 310 310 310 310 310 310 310 310 310 310 311 312 313 314 315 317 320 322 324 324 324 324 325 326 327 327 328 329 327 327 327 327 328 329 330 329 328 328 328 328 328 328 328 329 331 332 331 331 331 331 331 332 332 332 331 331 331 331 331 331 331 330 329 329
314 311 315 315 314 323 322 315 317 324 328 324 323 330 331 329 330 325 321 321 318 317 316 314 314 313 313 313 311 311 310 310 309 309 309 309 309 309 308 309 309 308 309 309 309 310 311 312 314 316 319 323 324 324 324 324 324 325 326 327 327 327 327 327 328 328 330 331 330 329 329 329 328 328 328 328 329 330 332 331 331 331 331 332 332 332 332 331 331 331 331 331 331 330 330 329 329
315 313 315 312 310 317 320 319 320 324 328 323 322 332 333 328 330 327 322 321 319 317 315 314 313 313 312 312 311 310 309 308 308 308 308 308 308 308 308 308 308 308 308 308 308 308 309 311 313 314 317 320 321 323 325 325 325 325 325 326 326 327 328 328 328 329 330 330 329 329 330 330 329 328 328 329 329 330 331 331 331 331 331 332 332 332 331 331 331 331 331 330 330 330 329 329 329
315 316 314 314 316 318 317 318 320 319 324 326 327 330 331 329 331 329 325 323 319 317 315 314 313 312 312 311 310 309 308 308 307 307 307 308 307 307 307 307 307 307 307 307 307 307 308 310 312 313 315 318 319 322 324 325 326 326 326 326 326 326 327 328 328 328 329 329 329 330 331 331 329 328 328 330 330 330 331 331 330 331 331 332 332 331 331 331 331 331 330 330 329 330 329 328 329
313 316 315 320 326 322 317 319 320 321 324 326 329 330 330 330 329 327 325 321 318 316 314 313 313 312 311 310 309 308 308 307 307 306 306 307 307 306 306 306 306 306 306 306 306 306 306 307 309 310 313 316 319 321 321 323 325 326 326 326 326 326 326 326 326 327 327 328 329 331 331 331 330 329 329 330 330 330 331 330 330 330 331 332 332 331 331 332 331 330 329 329 329 329 329 328 329
317 321 318 320 322 317 317 317 317 323 328 327 329 330 329 326 324 323 321 318 316 315 313 313 312 311 310 309 308 308 307 307 306 306 306 306 306 306 305 305 305 304 305 304 305 305 305 306 307 308 310 312 316 319 320 321 324 325 326 326 326 326 326 326 325 326 327 328 330 331 331 331 330 330 330 329 329 330 330 330 330 330 332 332 332 331 331 331 330 329 329 328 328 329 329 328 328
325 331 325 323 321 316 319 319 316 323 329 326 326 329 327 322 319 318 317 316 315 313 313 312 311 310 309 308 308 307 307 307 306 306 306 306 305 305 305 304 304 304 304 303 304 304 305 305 306 307 308 308 311 314 317 320 321 323 325 326 326 326 325 325 325 326 327 328 330 331 331 330 330 330 330 330 330 330 329 330 330 331 331 332 332 331 331 331 330 329 328 328 328 328 328 327 327
Wind_Speed
3 4 4 2 3 2 2 3 1 2 2 0 2 1 4 5 1 2 4 2 1 1 2 0 1 1 3 5 6 6 3 2 3 4 3 2 7 18 13 13 25 24 23 22 20 21 19 20 21 20 19 19 21 23 24 23 22 21 21 22 23 23 23 22 22 22 23 23 24 26 26 27 26 25 24 23 22 22 22 21 21 22 21 20 19 20 19 19 20 20 20 21 21 21 21 20 19
4 3 3 2 3 1 1 3 2 3 3 2 3 4 4 3 1 4 5 3 2 2 1 4 6 6 7 7 6 4 3 3 1 2 1 6 15 14 12 20 27 24 23 22 21 21 20 20 20 20 19 19 21 22 23 22 22 21 21 21 21 21 21 21 21 21 22 24 24 25 25 26 26 25 24 24 23 22 22 20 20 21 20 19 19 19 19 19 19 19 19 19 19 20 20 18 16
4 2 2 1 2 2 1 3 2 0 2 2 4 4 2 1 4 6 6 5 5 3 3 3 6 4 5 6 4 3 1 2 2 2 3 9 11 11 16 24 25 23 24 23 22 21 21 20 20 20 19 20 21 21 21 21 22 21 21 21 20 20 20 21 21 21 22 23 24 25 25 25 24 24 23 23 22 22 22 21 21 21 20 19 19 19 19 19 18 18 18 18 18 19 17 15 14
3 2 2 1 1 3 3 3 2 4 2 4 3 5 3 4 6 4 5 6 5 1 0 1 4 2 4 6 1 3 1 2 2 2 3 5 8 14 20 24 24 23 24 22 22 22 21 21 20 20 20 20 20 21 21 21 21 20 21 21 21 19 20 20 20 21 22 23 24 25 24 25 24 23 22 22 21 21 21 21 20 20 19 19 19 19 19 18 17 17 17 17 18 16 14 13 12
3 2 1 1 2 1 3 2 2 4 3 4 2 5 4 6 5 1 4 7 6 4 2 1 2 2 3 4 1 2 0 1 2 3 4 6 12 18 21 24 24 23 24 22 22 22 21 21 21 20 20 20 20 21 21 21 20 20 20 20 21 19 20 20 20 21 22 23 24 24 24 25 24 23 22 21 21 21 21 20 20 20 19 18 18 18 18 17 17 16 17 18 17 14 12 13 13
3 2 2 3 2 1 3 2 2 2 5 5 2 6 5 6 5 1 4 7 3 3 2 2 2 2 4 3 2 2 2 1 3 4 7 11 17 19 22 25 23 22 23 22 22 22 21 21 21 20 20 20 20 20 21 20 20 20 19 20 20 20 20 19 19 20 22 22 23 24 23 24 24 22 21 21 21 21 20 19 20 19 19 18 18 18 17 17 17 17 17 17 15 13 12 13 13
3 1 2 3 1 1 3 2 4 4 4 5 4 5 7 3 2 3 6 6 2 2 1 3 4 6 3 1 2 5 6 2 4 6 11 16 19 19 22 24 22 22 22 22 22 22 21 21 21 20 20 20 20 20 20 20 19 19 19 19 20 20 20 19 19 19 21 21 22 23 23 24 23 20 20 20 20 20 19 17 17 18 18 18 18 18 17 17 18 18 17 15 13 12 12 13 14
3 1 1 3 1 2 3 1 3 4 4 5 5 6 9 5 3 5 5 3 2 2 2 2 3 6 2 2 2 6 8 4 6 10 15 18 19 19 20 21 21 21 20 21 21 21 21 20 20 19 19 19 18 19 19 19 19 19 18 19 20 20 19 18 19 20 21 20 21 21 22 22 20 19 19 19 18 18 17 16 17 17 17 16 16 17 17 18 18 17 15 14 13 12 12 13 14
3 1 0 2 2 1 2 2 3 3 5 5 5 8 9 4 2 2 4 3 1 2 3 2 2 5 3 6 4 3 7 7 12 15 18 19 19 19 19 20 21 21 20 20 21 21 20 20 20 18 17 17 17 17 18 18 18 18 18 18 20 20 18 18 19 20 21 20 20 20 20 20 19 18 19 18 17 16 16 17 17 17 17 17 16 16 17 17 17 15 14 13 12 11 12 13 14
3 2 1 1 2 0 3 2 3 3 5 5 6 10 8 4 2 2 3 2 2 3 1 1 6 7 5 5 2 2 4 12 19 18 17 19 19 20 20 19 19 20 20 20 21 20 19 19 18 18 17 17 17 16 18 18 17 17 17 18 19 19 19 18 18 20 20 21 20 19 19 19 19 19 18 17 16 16 16 16 16 16 17 17 17 16 16 16 15 14 13 13 11 10 11 12 13
2 2 2 3 3 1 2 3 4 4 5 6 7 9 8 5 3 1 2 2 3 4 4 2 7 7 6 3 1 2 7 12 19 20 17 18 19 20 20 19 19 19 20 20 20 19 19 19 18 17 16 16 16 16 17 17 16 17 17 17 18 18 18 18 18 19 20 20 20 19 18 19 19 19 17 16 16 15 15 15 15 16 17 18 18 17 16 15 14 13 13 12 11 10 11 12 13
2 2 4 4 2 3 3 2 4 5 7 6 5 7 2 5 6 4 4 4 3 5 3 1 5 4 5 2 1 6 9 9 14 20 17 18 19 18 18 18 19 19 20 20 20 19 19 19 18 17 16 16 16 15 16 16 16 17 16 16 17 18 17 18 17 18 19 19 18 18 17 18 19 18 16 15 15 15 14 15 15 15 16 18 18 17 16 14 13 13 12 12 11 11 12 13 14
3 2 4 2 3 3 3 2 4 4 6 4 4 6 1 4 5 6 6 4 4 4 2 2 6 4 4 1 3 6 6 8 13 17 17 18 19 18 18 18 19 18 20 21 20 19 18 18 18 17 16 16 16 15 15 16 17 16 15 16 17 17 16 17 16 17 18 18 18 17 17 18 18 16 15 14 14 14 13 14 15 15 15 17 19 18 17 15 14 13 12 11 11 12 13 14 15
2 3 4 2 1 2 3 1 3 1 4 5 3 6 3 2 2 5 6 6 6 2 2 4 7 5 3 2 3 4 5 10 14 16 18 18 18 18 18 19 18 17 19 20 20 19 18 18 17 17 18 17 16 15 15 15 16 15 15 15 16 16 16 16 16 16 17 18 17 17 18 18 17 15 14 14 14 12 12 13 14 15 15 16 18 19 17 16 14 13 12 12 12 12 13 14 15
3 2 4 2 1 1 2 2 2 2 4 5 3 5 4 3 2 5 4 6 3 0 4 4 3 2 4 5 3 5 10 15 17 19 19 17 18 18 18 19 18 18 18 19 19 19 18 18 18 18 19 19 18 17 15 15 15 15 15 15 15 15 15 15 15 15 16 17 17 17 18 17 15 14 14 13 13 11 11 13 14 15 15 15 18 20 19 17 15 13 12 13 13 13 14 15 15
2 3 4 2 1 1 2 2 2 2 5 5 4 4 4 3 2 4 1 4 4 2 3 2 3 2 3 4 6 13 19 20 20 21 20 18 18 18 18 18 18 18 19 19 18 19 20 20 20 20 20 20 19 18 16 15 15 15 14 14 15 15 15 14 14 14 15 16 16 17 16 15 14 14 13 13 12 11 11 13 13 14 15 14 16 20 19 18 16 13 12 13 14 14 15 15 14
2 4 4 1 2 2 3 3 2 1 5 6 7 6 4 2 3 3 3 7 7 3 4 2 6 5 4 6 16 25 25 24 24 22 20 19 18 17 17 18 18 18 19 19 19 21 22 22 22 21 21 21 20 18 16 16 15 14 13 13 14 15 14 12 12 13 15 15 16 16 15 14 14 14 13 13 12 11 11 12 13 14 14 14 15 19 20 19 17 14 12 14 14 15 15 14 14
2 3 3 1 3 3 4 6 4 1 3 6 8 7 3 3 2 3 4 8 5 5 6 5 7 10 12 16 25 29 27 27 25 22 18 17 16 16 16 18 18 17 19 19 19 21 22 23 23 22 22 21 20 18 17 17 16 14 14 13 13 14 13 12 12 13 15 15 15 16 16 14 14 13 13 13 12 11 12 11 12 13 13 14 14 17 19 19 18 15 13 14 14 15 14 13 13
3 3 2 4 5 4 5 6 4 2 3 6 8 7 1 2 3 2 3 2 3 6 5 6 10 11 14 18 24 25 25 24 21 20 18 15 15 16 16 17 17 18 20 19 19 20 21 22 23 23 23 22 21 19 18 18 17 16 15 14 14 14 14 14 14 15 15 16 16 17 17 15 14 13 13 13 12 12 13 12 12 12 13 13 14 16 18 19 18 16 14 14 15 15 14 13 12
3 3 2 6 5 4 4 5 6 5 5 6 6 5 3 2 2 1 5 5 2 3 2 4 9 9 12 14 18 21 21 20 19 18 17 16 16 16 17 19 18 20 22 20 19 19 20 22 22 23 23 23 22 20 20 19 18 17 17 16 15 16 16 16 16 16 17 17 17 17 16 15 14 13 13 13 13 13 12 12 12 12 13 13 14 15 17 18 18 17 16 15 15 15 14 13 12
2 3 4 6 3 3 5 6 8 6 5 4 5 2 2 4 1 3 7 6 3 4 6 6 11 12 13 13 15 17 17 17 16 16 16 16 15 13 17 19 18 19 20 20 20 19 21 22 23 24 23 23 22 22 21 20 19 18 17 17 16 17 18 18 18 17 17 17 16 16 16 15 14 13 13 14 13 12 12 12 12 12 13 13 14 15 17 18 17 17 16 15 14 13 13 12 11
2 2 5 6 3 3 6 5 6 3 3 3 4 3 2 1 2 4 8 7 4 5 4 8 14 15 15 14 15 14 14 14 13 14 14 15 15 13 16 17 15 17 18 19 20 20 21 23 23 24 23 23 23 23 22 20 19 19 19 18 18 19 19 19 19 18 17 17 16 16 16 16 15 14 14 14 14 13 12 12 12 11 12 13 13 13 15 16 16 16 16 15 13 12 12 11 10
2 4 3 5 4 5 6 4 6 1 1 3 2 4 2 3 2 1 5 5 5 3 4 11 14 15 16 15 15 14 14 13 12 15 16 17 17 15 17 18 17 18 20 20 19 21 22 22 23 24 23 23 23 22 22 20 19 20 20 19 20 20 20 20 20 19 18 17 16 16 17 17 16 16 16 16 15 14 12 12 12 11 11 12 13 13 14 15 16 15 15 14 12 11 11 11 11
2 3 4 5 5 7 7 6 9 6 6 6 1 5 5 3 2 1 1 3 2 2 7 14 14 15 16 13 13 13 13 13 13 17 20 21 20 17 18 20 20 19 20 20 19 21 24 23 23 24 24 24 23 22 22 21 20 21 20 19 19 20 20 20 20 19 19 18 17 16 16 17 17 17 17 17 16 14 13 13 12 11 12 13 13 13 14 15 15 15 14 14 12 10 10 11 11
2 5 4 4 4 7 7 7 9 8 8 6 4 8 7 1 1 2 1 3 4 7 9 14 14 14 13 12 12 11 11 11 13 17 20 19 16 14 17 20 20 20 21 22 22 22 23 23 23 23 24 24 23 22 23 22 21 21 20 20 19 20 20 20 19 19 19 19 17 17 17 17 17 17 17 17 16 15 14 13 11 11 12 14 15 14 15 15 15 15 14 13 11 9 9 10 12
5 6 5 4 6 7 6 7 8 6 5 2 3 9 7 3 1 1 1 1 6 8 9 13 15 14 12 11 11 11 10 11 13 16 20 17 12 12 17 20 21 22 22 22 23 23 23 23 22 23 24 24 23 22 23 23 23 22 21 20 19 18 19 19 17 18 18 19 18 17 17 17 17 17 17 16 16 15 14 13 11 10 11 14 16 15 15 15 14 15 14 13 11 9 8 9 11
5 5 4 6 7 7 3 6 7 3 4 3 4 8 5 5 1 1 3 3 7 10 9 10 13 13 12 10 8 9 9 11 14 16 16 12 11 14 17 20 22 21 20 20 22 24 24 23 22 22 23 23 23 23 24 24 23 22 20 20 19 17 18 17 16 16 17 18 18 18 17 16 16 16 16 15 15 15 14 13 11 10 10 13 16 16 15 14 14 14 13 13 11 9 8 9 10
3 4 3 6 6 7 3 6 7 1 3 6 8 5 3 4 2 3 5 4 8 11 10 9 11 11 11 10 8 7 7 10 14 14 14 14 16 18 19 22 24 21 21 21 22 23 24 24 23 23 23 23 23 24 24 23 23 22 20 19 19 18 18 17 16 16 16 17 17 17 17 17 17 17 16 15 15 15 14 13 12 11 11 13 16 17 15 14 14 13 13 13 11 9 8 9 9
1 3 2 7 6 6 5 5 5 4 2 5 8 1 5 2 1 4 4 5 6 10 11 9 10 9 9 8 7 6 6 9 12 14 17 19 19 19 22 25 24 23 23 22 21 22 23 24 25 24 24 24 23 24 23 22 21 20 20 19 19 19 18 18 17 16 17 17 17 17 17 18 18 18 18 17 16 15 14 13 13 12 11 13 16 17 15 14 14 13 14 14 12 10 9 10 10
1 2 1 4 6 5 5 2 2 4 2 4 6 1 6 5 5 7 4 7 8 9 9 8 8 8 7 7 7 6 6 8 12 16 19 19 18 19 22 24 23 23 22 21 21 21 22 24 25 25 25 24 23 23 22 21 20 19 19 19 19 19 19 18 18 17 17 17 18 18 19 20 20 19 19 18 17 16 15 14 14 12 11 13 16 16 15 15 14 13 14 14 13 11 10 10 10
1 1 1 2 1 4 7 3 2 5 3 3 6 1 5 4 6 7 5 8 11 11 9 9 9 8 7 6 8 8 7 9 14 17 17 17 19 20 21 21 21 23 23 21 21 20 21 23 24 25 25 23 23 22 22 21 20 20 20 19 19 19 19 18 18 18 18 18 18 18 19 20 20 20 20 19 19 18 16 15 14 12 11 13 14 15 15 15 15 14 15 15 13 11 11 11 11
3 1 2 3 2 4 8 3 2 3 1 3 6 2 5 4 6 6 4 8 8 10 10 10 9 9 9 6 7 8 7 10 15 16 16 16 18 20 22 20 19 22 25 23 21 19 21 23 24 24 23 23 22 22 22 20 20 20 20 19 19 19 18 18 18 18 18 18 18 19 19 19 20 20 20 20 20 19 17 16 16 14 13 14 14 14 15 15 15 15 15 14 13 12 11 12 13
3 2 2 1 1 2 3 2 2 0 1 4 3 3 2 2 4 7 1 6 6 7 8 9 9 9 8 6 6 6 7 9 11 15 17 16 17 19 22 22 19 21 23 23 21 21 24 24 23 22 21 21 21 21 21 20 20 20 19 18 18 18 18 17 17 17 18 19 19 19 19 19 20 20 20 21 20 19 18 18 17 16 14 14 14 14 14 14 15 15 15 14 13 12 13 14 15
3 2 2 2 2 1 1 2 4 5 4 2 3 1 4 2 3 9 8 2 3 4 4 6 7 7 7 6 6 6 7 9 9 13 17 17 17 17 20 21 21 21 21 22 21 22 25 24 21 19 18 19 19 19 20 20 20 20 19 18 18 18 18 18 17 18 19 20 20 20 19 20 21 21 21 21 19 20 20 19 19 17 15 14 14 14 15 15 15 16 16 15 14 14 15 16 17
3 1 3 0 1 0 1 2 2 5 5 1 1 3 6 4 7 9 10 6 1 1 1 3 5 7 8 7 7 7 8 10 10 12 14 16 16 16 17 18 19 20 20 20 20 22 24 23 20 18 16 15 15 16 18 20 20 19 19 18 18 18 18 19 19 19 20 20 20 19 19 21 22 22 22 21 21 21 21 19 20 20 17 15 14 14 15 16 16 18 17 16 16 15 14 16 17
7 4 5 3 1 2 4 4 5 1 2 1 4 4 3 8 11 10 10 7 7 6 3 3 2 4 7 6 7 8 9 9 8 10 12 14 15 14 14 14 14 16 16 16 16 17 19 17 16 15 12 10 10 12 15 18 19 19 19 19 19 20 21 20 20 21 21 21 21 19 19 22 23 22 23 23 23 22 21 20 21 23 20 17 16 16 16 17 17 18 18 17 16 14 14 15 16
7 5 5 3 1 3 5 4 6 3 1 3 4 4 8 10 10 10 9 11 14 11 6 4 1 1 4 5 6 8 8 4 3 8 11 10 9 8 8 9 10 12 14 13 13 13 15 13 10 10 10 8 7 10 15 18 18 18 19 20 22 21 21 21 21 22 22 22 21 20 20 22 22 21 23 24 23 22 21 21 23 23 22 20 19 17 17 16 16 16 16 16 16 14 13 14 16
6 5 5 1 1 3 6 4 5 2 2 3 4 11 10 9 9 10 10 14 14 12 9 7 4 2 3 4 4 6 4 2 2 5 5 2 2 3 5 7 7 10 13 14 13 14 15 13 10 8 8 7 8 11 15 18 18 19 18 19 21 20 20 20 20 21 22 21 21 20 19 21 22 21 22 23 23 21 21 23 24 23 21 21 20 17 17 16 16 16 17 17 15 14 13 15 18
5 4 4 0 2 3 5 3 5 4 2 2 8 13 7 6 8 11 13 11 10 10 10 9 8 6 5 4 3 3 3 2 3 4 5 8 7 4 4 6 7 10 13 14 14 14 14 14 12 11 9 8 8 10 13 16 17 18 17 16 16 16 17 18 18 19 20 20 19 19 17 18 21 21 22 22 21 20 21 22 23 23 20 20 19 18 18 18 18 17 18 18 15 14 13 16 20
4 4 5 2 3 1 2 4 5 4 2 2 10 11 5 7 7 11 12 8 9 10 10 11 11 9 7 5 2 2 3 3 4 4 6 8 7 3 2 5 7 9 12 13 13 12 12 13 13 13 13 12 10 10 11 13 14 15 15 14 13 13 14 15 16 17 18 18 18 17 15 16 18 18 19 20 20 20 21 20 21 23 21 19 19 20 21 21 19 17 18 19 17 16 14 15 19
0 3 5 3 3 3 4 3 4 4 3 4 10 8 5 7 8 10 8 8 11 11 12 15 13 11 10 9 6 3 2 3 4 4 4 6 6 4 1 2 5 7 10 12 13 12 11 12 12 12 13 14 13 12 12 12 12 12 13 12 10 10 11 12 14 16 16 16 16 15 15 16 18 17 15 17 18 17 19 20 20 24 23 20 20 21 22 20 18 17 18 19 19 20 17 16 19
2 3 6 7 6 5 3 3 5 5 3 1 6 6 2 5 8 9 7 9 12 11 14 17 14 14 13 11 9 6 5 5 4 4 4 5 6 5 3 1 4 6 7 8 10 11 12 13 14 14 14 14 14 14 13 13 12 12 13 13 11 11 11 12 14 16 16 16 16 16 16 16 17 18 15 15 16 15 16 18 19 23 23 21 20 20 19 17 16 17 18 20 21 21 18 18 21
2 5 8 8 6 5 2 1 4 2 2 1 4 6 3 2 6 7 6 8 11 11 15 16 14 14 12 11 10 9 8 6 5 5 5 6 5 5 4 2 4 6 7 8 9 10 10 12 14 15 15 15 16 16 16 14 12 12 13 15 15 13 12 13 15 16 15 16 18 18 16 15 16 17 16 16 17 16 17 19 20 21 21 20 19 19 18 16 16 18 19 21 21 20 18 19 21
3 6 8 9 7 6 4 4 4 2 3 2 4 5 5 1 3 5 5 5 10 12 14 14 13 13 13 12 11 11 11 9 7 7 7 7 7 6 5 2 3 7 10 12 12 12 12 12 12 12 13 12 11 13 15 16 15 14 14 15 15 14 12 13 15 15 16 16 16 17 16 17 17 17 17 18 19 18 19 21 20 20 20 20 19 17 18 17 17 18 19 20 20 20 20 19 20
6 6 8 8 7 6 5 6 3 1 0 2 6 4 5 2 3 4 4 5 10 12 12 12 12 13 13 13 13 13 12 12 11 10 9 9 11 11 8 5 5 9 13 15 16 17 16 15 15 13 12 10 10 12 14 15 14 14 14 13 14 15 15 15 14 13 13 13 14 16 16 17 18 17 17 19 20 20 21 21 20 20 20 21 19 16 18 18 17 19 20 20 20 22 22 20 19
5 6 7 5 5 5 4 5 3 3 2 4 6 3 5 1 4 3 2 5 7 8 8 9 11 12 12 12 13 13 12 12 11 12 12 14 16 17 16 15 15 17 15 11 13 17 18 18 17 16 15 13 14 16 15 14 13 12 13 11 10 13 16 17 15 11 10 11 15 17 17 18 18 18 18 19 21 22 21 20 19 20 20 19 18 17 18 18 18 18 19 20 21 23 24 22 20
6 7 7 6 6 5 4 3 4 4 1 5 6 2 5 2 3 3 3 4 6 6 6 9 11 12 12 11 11 11 11 10 10 11 14 17 20 22 22 21 21 23 21 15 15 17 17 17 18 17 17 15 14 15 15 14 15 15 18 16 13 14 18 20 18 13 11 11 15 18 18 19 19 20 20 20 22 23 21 20 20 19 19 18 17 17 18 18 18 17 18 20 22 23 23 22 21
6 5 5 5 4 4 4 4 3 4 2 5 5 3 6 3 2 2 6 7 8 8 8 9 11 11 11 10 10 10 10 10 10 10 11 15 18 21 22 22 22 24 24 22 21 20 17 16 16 17 18 15 11 11 12 13 14 17 21 20 16 15 16 18 19 17 14 13 15 17 18 20 21 21 21 21 22 23 21 21 21 20 20 18 17 16 17 18 18 17 17 20 22 22 22 21 22
5 5 6 6 1 2 1 2 0 2 3 3 5 3 5 4 2 5 7 8 9 8 8 9 10 10 10 11 11 10 10 11 10 10 10 11 13 16 18 19 21 23 24 24 23 22 20 17 15 16 17 16 13 11 11 12 12 13 17 19 20 20 19 19 19 19 17 15 15 18 18 21 23 23 23 22 23 24 23 22 21 21 20 18 17 16 15 16 17 17 18 20 21 22 21 21 22
5 5 6 5 3 3 2 2 0 1 2 2 5 3 3 3 4 6 8 8 9 9 10 10 10 10 9 10 10 9 11 11 10 10 10 10 13 16 17 17 19 22 23 25 24 23 21 19 17 15 16 17 16 14 11 9 8 10 15 20 23 24 24 22 21 19 17 16 18 20 20 22 25 26 26 25 24 24 24 23 22 21 20 18 17 15 14 15 16 17 18 20 21 21 21 21 22
4 4 6 5 5 5 4 3 2 3 1 3 5 3 1 2 5 8 9 9 9 10 9 9 9 9 8 9 10 10 11 11 10 10 10 13 16 18 17 18 20 22 23 24 25 26 24 22 21 18 18 18 18 16 12 9 9 12 17 22 24 25 25 23 21 18 16 17 20 21 21 24 27 28 27 25 24 24 23 21 21 21 20 18 16 15 14 15 15 17 18 19 20 20 20 21 21
1 2 6 4 5 5 4 3 4 5 3 3 3 2 0 2 7 8 9 9 9 9 9 9 9 9 8 9 10 11 11 11 11 11 11 15 18 19 18 18 19 23 24 24 26 27 26 25 23 22 20 19 19 17 13 12 13 14 15 19 22 22 22 21 20 18 17 17 20 20 20 22 26 27 25 23 23 22 22 21 21 21 19 18 16 16 15 16 16 17 18 19 19 19 19 20 21
2 2 4 4 4 8 6 2 2 4 5 1 2 2 2 3 5 7 9 9 9 8 8 9 8 8 8 8 8 9 9 10 10 10 11 15 18 19 19 19 20 23 24 25 27 26 26 26 25 25 23 20 19 18 15 14 14 14 14 17 19 19 19 19 20 18 17 18 19 18 17 19 24 26 24 22 21 20 20 21 21 20 19 18 18 17 16 17 18 19 19 19 19 18 18 19 20
5 3 5 3 3 5 5 3 3 4 4 0 2 2 4 2 2 5 8 8 8 8 8 8 8 8 7 8 8 9 9 9 9 10 11 15 18 19 21 21 21 22 22 23 26 26 26 26 26 27 27 24 22 20 17 16 16 16 14 16 18 19 20 20 19 17 18 20 19 17 16 17 22 25 24 20 19 19 19 19 20 19 18 19 19 17 16 17 18 18 18 18 18 17 17 18 19
5 5 4 4 3 2 2 3 2 3 3 1 1 0 2 2 1 4 7 7 8 8 7 7 8 8 7 8 9 10 10 9 9 10 10 13 17 19 20 20 21 21 20 21 25 27 29 29 28 28 28 26 24 21 18 17 16 16 15 13 14 16 19 18 16 16 19 21 19 15 14 17 22 24 20 16 16 18 19 19 19 18 18 19 18 17 16 16 16 17 18 17 16 16 16 17 18
4 4 3 3 3 4 3 2 3 4 4 2 1 1 1 1 1 3 7 7 8 7 6 6 7 7 7 8 8 9 9 9 9 9 9 13 17 18 19 20 20 19 19 22 27 28 30 30 29 29 29 27 26 23 20 18 15 14 14 12 11 13 15 15 15 15 18 20 17 14 16 19 22 23 17 12 14 17 18 19 18 18 19 18 18 17 16 15 15 17 17 16 16 16 16 17 17
3 3 2 1 2 2 3 2 2 4 5 4 3 1 1 2 3 5 9 8 7 7 6 5 5 7 7 7 7 8 8 9 10 9 10 14 17 19 20 21 22 21 22 26 29 29 30 31 29 29 30 29 28 26 24 20 16 14 13 12 12 12 13 14 14 15 18 18 15 15 18 20 22 22 16 12 13 15 16 18 19 19 19 19 18 17 16 16 16 17 17 16 17 16 16 16 17
4 3 3 4 3 4 4 2 1 3 4 4 5 3 2 2 4 6 8 7 7 7 7 6 6 6 7 7 7 7 7 8 9 9 11 14 16 19 21 22 24 25 26 28 29 28 29 30 30 29 30 30 28 28 27 24 20 17 14 12 11 11 12 15 15 14 15 16 16 17 20 22 22 21 16 12 12 13 14 17 18 19 18 17 17 16 16 17 16 16 17 17 17 17 16 17 17
Wind_Direction
78 77 55 32 359 339 339 55 89 324 87 321 283 234 255 234 227 287 285 284 260 285 282 131 142 45 87 122 140 143 110 136 163 130 200 277 118 144 147 141 147 143 142 146 148 150 149 149 148 146 146 145 145 143 141 139 134 130 129 129 129 129 129 130 132 132 131 128 124 122 120 121 120 121 121 120 118 117 117 117 118 118 116 111 107 105 102 99 99 99 98 97 96 96 96 94 92
86 85 45 38 19 45 244 73 100 320 50 313 277 187 255 281 199 241 238 225 197 171 128 92 90 60 61 87 104 93 41 12 42 113 84 113 120 132 142 147 146 141 143 147 151 152 153 152 148 147 146 145 146 144 142 140 138 132 131 130 129 129 129 131 131 132 130 126 123 121 120 120 119 120 121 121 120 120 120 119 119 121 119 114 110 108 105 102 100 99 98 96 95 98 100 95 94
89 83 30 48 15 46 72 45 106 67 102 239 271 229 250 274 219 228 234 242 240 158 127 86 75 52 56 64 52 73 18 334 59 61 87 123 122 127 145 149 146 142 145 149 152 156 156 153 150 147 145 146 147 145 142 141 141 137 134 131 130 131 130 132 132 132 130 126 124 122 121 120 120 120 119 119 118 120 121 122 121 122 121 117 115 112 109 107 103 101 98 97 97 99 99 96 98
93 82 357 235 32 28 62 44 142 121 148 216 264 258 220 215 230 242 271 268 256 220 171 6 56 10 83 92 76 96 88 299 95 103 106 125 135 141 149 150 146 144 147 150 153 157 155 153 152 148 146 147 149 147 145 144 143 139 136 133 131 133 133 133 133 133 131 129 126 125 124 123 122 120 120 119 118 118 118 120 123 123 121 119 117 115 113 110 106 104 101 101 101 97 94 94 94
101 115 344 60 97 24 96 80 116 120 203 194 217 263 226 218 238 265 284 277 254 227 218 77 65 315 79 96 144 109 283 255 119 136 105 121 149 149 153 153 148 146 149 153 156 156 153 154 153 150 148 149 151 150 150 148 145 142 140 137 135 135 137 136 135 135 134 133 129 127 126 124 123 121 121 121 121 121 118 119 124 125 124 122 119 118 117 116 112 108 106 107 103 95 92 90 90
97 116 26 45 96 167 113 122 157 203 228 172 190 261 239 219 227 253 307 291 260 189 207 80 116 127 75 37 67 72 306 227 119 140 137 143 156 157 157 156 150 149 152 155 157 155 153 156 155 153 152 151 153 154 154 151 148 147 144 141 140 140 139 138 138 138 136 134 132 130 128 127 124 123 126 127 124 124 124 124 128 128 128 127 124 125 124 120 117 114 113 110 103 95 91 88 90
103 109 14 52 26 30 109 169 189 234 244 178 198 262 270 248 209 349 352 327 7 74 57 87 116 103 74 354 52 10 347 179 144 155 158 153 156 157 157 154 149 151 154 156 155 153 154 158 157 157 157 153 153 155 155 153 152 150 146 145 145 143 141 141 140 139 138 135 133 132 131 129 126 128 132 131 128 128 128 126 129 129 130 130 129 128 125 122 122 120 117 111 103 96 92 92 94
103 120 21 95 42 16 106 199 220 220 246 219 224 256 274 299 19 350 343 325 343 19 35 68 88 85 58 36 66 357 13 111 144 153 154 147 149 150 153 152 148 150 154 155 153 152 156 160 159 160 159 154 152 153 154 152 154 152 149 149 146 144 142 142 142 141 139 137 135 134 133 131 130 133 136 132 129 129 127 123 124 126 129 131 132 130 128 128 128 124 119 111 105 99 96 98 100
71 52 87 104 134 22 51 292 264 232 255 260 260 258 268 298 35 312 294 286 200 56 9 309 49 97 104 63 83 343 26 106 130 136 142 142 146 147 151 153 149 150 152 153 152 153 158 160 159 160 157 154 152 153 153 151 155 155 152 150 147 145 144 143 143 142 140 139 138 137 136 135 134 135 137 133 129 129 125 122 121 125 129 133 136 137 135 134 131 126 120 114 108 103 99 101 105
49 27 146 89 123 36 332 288 266 252 252 263 271 265 269 267 179 232 265 231 143 98 43 21 67 106 125 82 82 345 76 125 127 126 135 142 147 149 150 150 148 149 150 152 154 157 158 158 159 160 160 158 158 156 154 153 156 157 153 151 149 147 147 144 144 146 143 141 140 140 139 138 138 137 135 133 133 132 127 122 122 126 132 136 140 142 142 138 134 128 121 116 110 103 99 103 111
48 343 102 77 84 160 247 247 272 266 270 293 288 272 261 224 166 203 195 143 91 115 183 76 77 112 102 81 67 95 127 131 129 129 137 144 145 147 146 146 148 148 150 152 155 156 155 158 161 162 163 164 163 160 157 158 159 156 154 153 151 150 148 145 145 149 146 142 142 143 143 142 140 137 135 137 138 135 130 125 122 126 134 140 143 145 145 142 136 129 124 117 108 101 98 107 117
104 321 69 94 149 185 204 224 273 282 301 306 288 291 259 160 143 156 148 129 102 126 214 133 129 140 87 98 128 108 128 132 129 132 138 142 142 143 143 146 147 149 151 153 155 154 157 161 161 161 162 164 166 163 160 161 160 157 155 155 154 153 149 145 145 151 148 144 144 145 147 145 141 138 139 141 140 136 132 127 122 124 134 143 148 149 147 144 138 131 126 115 106 101 101 111 119
131 157 92 130 197 176 173 204 274 309 314 282 249 290 326 126 145 166 145 99 79 113 312 77 133 112 93 148 87 105 130 133 128 129 139 141 144 146 144 146 146 149 153 155 155 155 160 161 160 163 162 163 166 164 161 162 161 159 157 157 157 155 151 147 146 150 152 148 148 149 148 145 141 141 142 143 142 139 135 130 125 124 131 144 152 154 150 145 140 135 124 112 107 104 105 115 117
153 154 120 173 227 147 171 218 286 343 288 268 261 289 333 59 136 137 119 75 30 100 100 86 116 92 111 141 96 132 140 131 130 131 137 138 143 145 143 145 146 150 155 156 155 155 158 159 162 166 166 166 168 166 164 165 164 162 160 159 159 158 155 153 151 152 156 156 154 153 148 144 143 146 146 146 145 141 138 134 130 126 129 143 155 157 154 147 142 137 122 112 109 107 111 117 117
174 137 94 126 346 319 218 218 219 144 257 272 287 300 21 40 123 101 104 104 43 114 116 94 103 83 162 163 157 161 138 131 133 134 134 133 139 142 145 149 150 153 155 156 156 156 157 161 166 170 171 169 170 170 168 168 167 166 163 161 161 161 160 159 156 156 160 161 159 153 147 145 147 151 152 150 147 143 137 135 133 129 129 139 155 159 156 150 144 137 123 114 112 111 116 120 119
142 104 70 98 235 273 226 215 177 140 258 266 293 320 55 21 48 79 327 123 113 8 62 66 345 355 160 154 134 133 132 133 136 137 134 133 138 142 147 148 150 154 156 159 159 160 161 165 170 173 175 173 172 172 170 168 168 169 167 164 164 165 165 162 160 160 161 163 162 154 150 152 154 157 158 154 150 144 134 134 135 132 131 136 152 159 157 152 145 138 126 118 116 117 120 123 122
79 84 71 65 205 210 210 206 173 148 271 288 330 356 72 32 24 85 18 70 100 41 42 39 354 23 87 101 119 126 131 137 140 139 135 139 143 145 148 148 151 155 160 164 167 167 167 169 171 174 176 175 174 172 170 167 167 168 168 167 167 169 168 163 161 160 161 163 164 159 160 163 163 164 162 160 154 144 134 133 136 135 133 135 148 157 156 152 147 141 129 120 119 121 124 125 123
74 100 118 200 197 198 191 190 197 186 284 302 328 341 75 107 99 130 56 49 67 52 37 44 40 55 82 105 118 126 133 139 143 143 144 149 150 150 152 154 155 158 163 169 173 173 173 172 172 174 176 177 175 173 170 168 169 169 168 168 169 173 170 165 162 160 162 165 168 170 174 174 170 170 168 167 161 147 139 135 138 139 136 135 146 155 155 153 150 144 134 123 121 123 127 129 127
118 120 142 217 204 211 197 191 215 212 268 298 310 311 329 141 151 141 93 57 50 70 39 55 75 77 91 110 119 128 136 142 149 150 154 162 165 161 154 159 162 162 166 173 176 176 177 174 173 174 176 178 176 173 172 172 173 173 170 170 170 172 171 171 168 165 167 170 174 178 182 183 178 176 174 172 168 155 145 139 140 144 142 139 144 155 158 156 154 149 140 129 122 122 127 132 135
164 126 169 241 220 239 230 208 233 231 256 293 296 305 325 262 179 89 123 118 49 112 158 97 103 108 111 120 126 133 140 148 157 159 163 173 178 165 156 165 171 171 171 174 176 176 179 176 174 176 179 179 177 176 175 177 178 176 175 173 171 171 173 176 175 174 175 177 180 184 185 186 184 180 178 174 169 161 151 145 146 149 151 149 148 157 163 162 159 154 147 136 128 124 127 134 142
181 143 190 239 198 250 250 211 235 245 236 255 279 309 296 263 83 99 126 106 339 240 213 162 141 137 132 136 137 141 148 155 164 169 172 179 181 166 166 174 176 177 173 172 175 179 181 178 177 180 183 182 179 179 179 180 180 178 178 177 173 174 177 179 181 183 183 183 184 187 188 188 186 182 181 177 172 169 164 159 156 156 159 158 156 160 167 169 163 156 152 144 135 129 129 136 144
183 216 208 222 173 249 266 222 231 220 183 229 298 316 258 251 58 116 128 125 232 238 209 160 147 146 145 145 145 148 155 162 169 177 180 184 185 171 173 179 178 179 175 173 177 182 184 181 180 180 183 185 183 184 183 182 182 181 181 179 177 179 182 183 186 187 188 189 186 188 190 189 188 184 183 181 179 181 182 177 167 164 166 166 164 164 170 173 167 158 154 151 143 136 131 134 143
202 273 265 240 219 245 278 286 275 332 22 251 235 289 284 83 43 116 127 159 229 266 148 144 144 146 144 144 149 158 163 169 174 182 185 187 189 179 174 181 183 182 180 178 180 184 186 184 185 182 183 186 187 188 186 185 185 186 185 182 182 183 186 188 191 191 192 194 190 191 190 189 189 187 188 187 187 191 194 190 178 171 171 172 173 170 172 174 171 162 157 156 151 143 133 130 140
184 261 294 269 236 237 265 289 294 323 311 273 255 311 298 81 37 39 74 262 295 37 123 132 136 140 143 148 157 166 167 170 178 186 191 192 193 184 177 183 187 187 185 182 183 186 187 187 187 185 185 187 189 190 190 189 188 191 189 185 188 189 190 192 194 194 197 200 196 196 194 193 192 191 194 193 195 198 199 198 188 178 174 176 180 177 174 175 174 167 161 160 155 148 136 131 138
190 227 265 282 253 251 276 292 295 305 289 285 347 314 297 15 83 127 222 286 61 94 122 124 131 139 148 158 162 169 169 169 177 189 199 201 195 184 180 185 189 192 191 187 186 188 191 191 189 188 189 191 192 192 194 194 192 196 192 189 193 193 195 197 197 199 202 206 204 203 202 200 198 197 200 200 200 202 203 205 199 185 176 178 183 182 177 175 176 173 166 164 160 153 141 136 140
213 210 237 270 279 280 296 293 282 284 274 319 343 288 292 327 258 84 311 193 101 105 122 127 136 144 154 162 165 172 173 172 178 191 203 204 192 185 185 189 194 197 197 192 188 190 195 195 194 194 194 194 195 196 200 199 197 201 197 194 195 196 200 201 202 203 205 209 210 210 209 208 209 208 207 207 206 207 208 209 207 196 183 182 186 187 182 176 178 178 171 167 166 162 150 144 146
196 187 240 251 276 295 303 289 284 281 254 178 191 252 291 344 341 294 292 162 122 113 124 138 140 147 159 164 169 175 179 181 182 189 202 206 195 193 192 195 199 201 201 196 191 193 197 198 198 200 199 199 200 201 205 204 202 205 203 200 198 197 202 204 206 208 208 210 213 216 217 215 217 218 217 215 211 210 211 211 212 206 195 189 190 191 185 179 179 181 176 171 171 172 161 151 153
170 156 292 282 298 307 268 270 276 250 247 192 177 226 323 15 75 223 243 173 138 129 137 151 147 151 159 163 168 174 185 184 186 191 200 205 202 199 198 201 203 202 203 202 198 196 198 199 200 203 204 205 206 206 208 207 205 207 207 204 202 200 203 207 210 212 212 213 215 219 223 223 223 226 226 222 217 215 213 213 213 211 208 199 193 192 190 184 180 179 177 175 178 181 168 158 163
141 134 296 300 345 328 262 265 257 180 203 185 159 258 316 323 237 262 236 164 140 132 145 157 152 153 152 160 169 177 186 183 193 203 206 207 205 203 205 207 205 204 205 205 203 201 201 202 203 207 208 210 211 210 211 209 208 209 210 208 206 205 205 209 213 215 216 215 217 220 224 226 228 231 231 228 225 223 220 216 213 214 213 202 193 192 192 190 185 180 178 178 183 186 176 167 170
295 98 121 305 1 336 279 305 245 167 163 166 140 264 282 264 255 255 200 154 139 135 157 163 154 154 149 161 173 181 186 189 206 211 210 211 209 209 212 212 208 208 209 207 208 206 205 205 207 211 213 214 214 214 214 212 212 212 212 211 210 210 209 212 215 218 219 217 219 221 224 225 227 233 235 233 230 229 226 218 214 214 208 196 192 193 193 194 193 187 182 184 188 189 184 178 178
318 56 63 359 33 282 297 322 147 149 161 135 116 206 266 263 257 250 201 165 154 152 170 166 158 157 154 169 177 185 196 208 218 216 213 214 214 217 219 217 212 213 213 211 211 210 210 210 210 213 215 215 216 217 217 216 217 216 214 213 213 214 215 217 218 220 222 221 221 222 225 225 226 231 235 236 234 232 227 217 213 208 197 192 192 195 194 195 199 197 193 194 193 187 186 185 184
39 119 307 350 167 259 305 315 150 158 250 64 103 196 281 287 273 278 219 186 169 161 175 171 165 160 159 176 181 183 201 219 226 225 224 220 219 222 223 223 219 217 216 214 214 214 216 216 214 216 215 216 218 220 220 219 218 217 215 214 214 217 220 222 222 223 225 224 225 225 225 224 225 229 233 236 234 231 226 216 209 201 195 196 197 198 197 197 202 205 206 207 202 191 189 188 187
6 112 208 268 171 265 307 323 332 297 8 18 75 172 273 282 292 326 334 191 187 169 178 175 166 160 163 176 179 180 200 220 230 230 229 226 224 226 227 229 229 226 222 218 217 217 221 221 218 218 217 217 218 220 220 219 218 216 215 215 216 220 224 227 227 227 227 226 227 227 227 226 226 229 232 234 232 232 228 216 209 204 202 203 203 204 203 203 206 209 211 214 215 206 197 191 187
323 33 144 222 193 202 287 306 335 27 60 358 18 183 240 239 331 350 1 303 214 169 175 177 165 159 171 180 178 184 203 218 225 225 226 226 226 229 232 236 237 235 229 224 223 223 226 225 220 219 222 222 220 221 221 219 218 217 216 216 219 223 228 231 230 229 229 229 229 228 229 231 231 232 232 231 231 233 230 219 213 210 210 210 210 210 207 208 207 207 208 208 215 213 203 195 188
191 164 121 146 322 264 271 267 287 26 35 328 31 270 266 340 13 4 358 354 31 84 119 173 179 169 176 188 185 191 210 221 225 225 226 226 227 230 237 243 244 242 236 232 230 230 232 230 226 224 225 228 224 223 225 222 218 216 216 216 219 225 228 230 229 230 232 231 232 229 229 235 236 232 231 231 233 233 227 220 216 214 215 214 214 210 204 207 205 202 205 204 203 206 206 198 188
158 162 133 130 10 276 253 257 258 294 38 241 200 231 330 27 25 13 0 16 49 35 60 128 216 198 186 192 191 200 214 223 229 232 231 228 228 231 241 254 257 252 249 247 242 241 242 240 240 235 233 240 230 223 228 225 217 213 215 214 217 223 225 226 227 229 233 233 232 226 227 240 242 233 232 232 233 232 225 221 216 214 218 215 209 203 200 205 202 197 199 197 193 192 195 194 187
132 119 106 124 113 286 264 261 273 246 147 267 198 113 41 39 30 16 9 29 37 19 24 66 6 281 224 219 209 216 225 240 256 242 236 233 233 239 261 279 277 264 259 260 258 254 253 255 258 251 247 248 235 226 226 224 220 215 214 215 217 221 222 224 227 230 233 234 232 224 228 243 246 240 237 233 231 230 225 219 212 211 218 214 205 202 202 205 203 201 198 196 196 187 178 182 183
113 118 103 72 176 255 263 246 294 321 143 274 80 78 49 36 35 25 26 38 35 15 16 22 1 347 282 260 233 232 245 316 299 257 257 286 343 317 298 293 284 269 261 258 256 255 256 258 265 269 269 261 246 238 228 224 224 220 220 222 221 221 223 225 227 233 238 239 237 232 234 245 248 244 239 232 226 223 222 217 209 209 214 208 203 206 207 206 206 207 203 198 194 183 177 181 182
101 118 115 29 235 268 288 284 330 17 116 277 71 77 42 3 28 36 35 40 38 23 29 28 15 12 337 292 249 238 255 289 306 329 13 42 42 20 306 291 281 271 265 263 262 264 267 272 278 282 284 279 262 250 239 234 234 232 234 237 230 227 230 233 234 241 247 248 250 248 244 248 246 237 233 230 223 218 221 219 209 205 203 199 202 207 204 201 203 205 205 199 186 177 185 188 185
94 120 129 218 263 305 294 299 335 15 45 93 94 86 36 350 12 37 34 36 44 33 38 39 31 23 357 331 312 261 258 294 330 5 40 62 69 73 275 277 282 278 272 273 277 282 285 290 297 293 285 279 269 262 257 252 249 246 243 246 245 239 241 246 245 248 253 254 257 252 246 250 249 240 235 233 229 224 222 220 210 201 197 195 203 209 203 200 204 204 201 198 191 183 183 184 186
192 155 140 181 227 188 209 288 340 359 15 91 105 80 23 360 14 29 18 27 43 34 38 39 30 25 20 16 13 357 11 19 14 33 62 80 89 98 150 272 306 298 283 284 286 286 285 287 301 307 296 285 276 266 261 259 259 253 245 247 247 240 242 249 247 245 248 252 252 244 242 251 256 256 251 238 232 228 222 219 210 201 200 201 209 217 210 203 207 206 202 203 203 196 186 181 186
251 220 177 182 180 182 233 338 29 28 1 59 102 82 5 333 18 30 12 32 41 30 37 39 30 27 27 28 23 19 40 52 54 59 76 93 97 96 93 6 324 315 307 309 305 298 287 277 285 303 311 309 301 287 271 262 262 257 248 246 239 226 222 228 236 238 239 245 246 242 244 250 254 256 257 245 233 225 215 210 203 201 205 208 214 221 216 210 214 215 213 213 211 204 196 186 185
226 234 193 181 156 151 220 70 74 69 252 283 83 109 163 308 21 18 0 37 42 35 40 39 33 30 26 28 27 26 31 38 55 61 68 80 86 90 91 60 341 337 339 332 323 319 307 289 282 290 307 319 319 308 290 274 269 266 257 251 246 236 225 226 236 236 234 240 244 244 245 245 247 248 249 244 232 222 211 204 201 203 207 211 216 222 221 223 223 219 216 213 211 208 201 190 186
222 231 173 162 155 164 184 140 123 209 236 330 26 104 131 68 14 334 324 28 36 37 42 38 37 34 27 27 26 28 29 28 38 47 51 59 63 70 87 89 326 331 348 352 346 335 323 316 308 303 309 319 324 315 302 290 279 268 256 246 242 247 253 253 250 239 231 235 240 242 243 241 242 244 240 232 224 219 213 209 208 207 209 215 220 221 222 225 223 217 213 212 213 212 210 202 192
232 205 153 153 155 161 157 131 127 20 72 296 326 44 95 53 320 307 324 29 33 34 39 38 38 35 28 26 25 26 27 27 32 34 35 40 43 44 47 41 355 347 0 0 350 339 330 328 329 326 321 316 309 299 295 291 277 262 253 240 234 248 261 264 268 259 244 250 251 247 243 239 242 245 238 231 224 216 211 211 212 211 213 218 220 219 220 222 223 218 216 218 218 216 216 215 205
213 151 109 92 89 88 99 112 118 54 60 241 284 5 97 74 325 340 7 32 30 31 41 40 39 38 31 26 25 23 22 23 25 27 28 29 31 31 29 28 22 19 15 348 328 334 337 336 333 327 320 310 299 295 294 289 276 265 259 246 227 234 241 247 256 252 244 256 254 249 246 242 244 246 242 237 226 213 207 211 215 215 218 220 219 220 220 221 223 222 224 224 221 218 216 217 215
142 113 78 58 50 44 51 60 92 80 350 253 273 339 99 118 316 4 42 41 29 29 43 40 36 35 30 26 24 22 21 18 17 22 22 20 21 22 23 23 22 23 22 8 353 353 350 345 338 327 318 311 306 307 311 302 284 268 257 246 229 226 232 238 239 229 228 239 238 241 244 244 246 246 245 239 222 211 211 216 219 221 222 223 222 223 224 224 222 222 226 227 222 220 219 218 217
103 102 101 88 24 20 35 359 48 101 238 272 300 355 74 102 238 58 65 59 43 35 37 37 35 30 23 21 20 18 19 16 16 21 18 16 16 16 17 18 16 18 17 12 8 7 4 356 343 330 319 316 316 314 315 311 292 269 257 251 243 236 235 236 232 229 232 231 230 236 240 243 247 245 245 239 220 213 218 222 224 227 225 222 223 225 229 231 228 226 228 229 226 223 223 221 216
88 100 116 116 50 42 68 315 63 148 231 287 317 346 68 85 129 95 78 68 57 50 44 37 34 29 19 15 13 13 17 17 17 18 16 17 15 12 12 13 13 13 10 7 5 6 6 1 347 331 319 316 318 313 311 312 300 272 261 263 257 247 240 235 231 231 228 218 223 234 237 240 244 241 241 238 224 215 219 224 226 228 227 223 224 228 231 233 232 231 231 232 230 227 225 223 220
134 134 138 140 119 119 172 253 146 201 236 306 327 2 92 108 116 99 86 78 69 63 54 42 35 27 18 15 12 11 13 14 14 12 13 14 12 10 9 11 13 10 6 5 4 3 3 359 350 335 322 318 315 312 313 308 287 257 257 265 260 246 239 236 231 227 222 213 215 225 233 237 240 240 238 236 229 221 221 225 227 230 230 228 228 232 232 232 232 232 233 233 232 231 229 226 225
160 158 135 147 155 142 176 196 158 171 187 330 345 36 115 164 116 102 95 86 73 65 56 48 40 26 18 16 14 13 12 10 9 7 8 8 7 7 5 6 10 7 4 3 3 3 2 360 356 345 334 327 318 312 311 299 274 253 252 258 255 242 235 234 232 223 218 218 216 217 225 233 238 241 239 236 233 227 224 226 229 232 234 233 233 235 235 232 230 230 232 233 233 234 231 229 228
184 146 109 154 184 137 129 168 157 148 123 3 355 79 78 104 109 108 104 89 74 66 54 45 38 24 21 20 15 13 9 6 6 4 4 2 2 3 3 2 4 4 3 2 2 2 1 358 357 354 345 336 330 322 311 298 283 267 255 252 250 243 234 231 230 221 215 223 226 223 226 232 237 240 237 235 235 231 227 228 231 234 236 238 237 236 237 235 231 229 230 233 234 234 233 231 229
134 128 150 208 175 117 115 140 82 92 107 29 313 139 121 101 115 118 109 93 77 68 54 47 36 21 24 24 19 15 8 6 5 2 0 358 358 360 1 1 1 0 0 1 1 1 0 359 358 359 355 347 342 336 325 312 298 283 268 258 257 255 247 239 235 227 221 227 231 230 232 237 240 238 234 231 233 234 232 231 234 238 241 245 245 241 242 240 236 233 232 233 235 234 234 232 230
125 162 185 176 90 93 107 112 36 52 102 189 310 135 141 136 152 140 119 98 82 69 53 48 33 20 21 20 16 13 9 8 4 2 1 358 358 358 359 359 358 358 358 358 360 1 3 4 3 2 359 353 348 344 338 326 310 299 287 274 266 260 252 246 242 237 233 234 232 228 234 244 244 239 232 228 229 231 233 233 236 241 246 251 251 247 244 241 238 235 233 235 236 235 232 230 231
123 158 153 116 120 122 86 119 133 100 111 164 335 28 151 138 182 166 133 106 95 80 56 48 33 20 18 13 10 8 8 9 5 4 2 0 360 358 358 357 356 359 0 360 2 6 8 9 7 6 3 358 351 348 346 339 323 311 300 289 275 259 250 248 247 243 239 237 233 231 240 248 246 240 232 227 229 230 232 234 238 244 248 251 252 249 242 238 236 235 233 233 233 230 228 227 229
52 92 62 48 130 149 142 143 144 132 138 156 121 319 225 105 13 133 122 106 104 95 71 57 36 25 22 14 9 4 5 8 7 5 3 2 360 356 358 358 356 358 0 4 7 8 9 9 6 4 5 2 357 352 351 348 340 326 310 298 285 265 252 248 246 244 241 238 236 237 243 246 244 238 229 223 230 233 235 238 241 245 247 249 252 249 243 238 236 235 232 229 228 225 225 226 226
66 78 83 41 65 111 129 83 66 117 138 144 134 186 229 28 32 94 107 101 103 104 92 75 50 35 27 18 14 7 5 8 7 5 4 2 357 354 357 358 358 360 2 6 9 7 8 8 5 3 3 1 359 357 354 350 347 339 324 307 292 273 261 254 245 240 240 240 242 243 242 241 239 234 226 219 229 236 241 244 246 247 249 251 251 247 243 240 237 234 230 226 225 224 224 224 224
136 126 158 150 120 121 118 95 358 90 124 154 150 163 162 54 50 91 101 102 106 105 98 83 59 42 29 18 16 11 8 8 3 0 2 0 355 352 354 356 360 4 4 4 5 4 4 4 3 2 1 358 357 357 356 354 352 345 331 312 293 278 274 268 253 239 238 239 241 243 240 235 231 229 222 216 224 236 246 251 252 251 251 250 247 244 242 239 236 234 229 223 221 223 224 224 223